Weather History for Nuiqsut, AK

Change the Weather History Date:

Friday, April 12, 2013

  Actual Average (PAKU) Record (PAKU)
Temperature  
Mean Temperature -11 °F -  
Max Temperature -2 °F 5 °F 35 °F (1989)
Min Temperature -20 °F -2 °F -36 °F (1985)
Degree Days  
Heating Degree Days 76    
Moisture  
Dew Point -17 °F    
Average Humidity 81    
Maximum Humidity 87    
Minimum Humidity 75    
Precipitation  
Precipitation 0.00 in - - ()
Sea Level Pressure  
Sea Level Pressure 30.48 in    
Wind  
Wind Speed 9 mph (SW)    
Max Wind Speed 12 mph    
Max Gust Speed -    
Visibility 10 miles    
Events      
Averages and records for this station are not official NWS values.
T = Trace of Precipitation, MM = Missing Value Source: NWS Daily Summary

Daily Weather History Graph

Daily Weather History Graph

Search for Another Location

Airport:

Trip Planner

Search our weather history database for the weather conditions in past years. The results will help you decide how hot, cold, wet, or windy it might be!

Date:

Astronomy

Apr. 12, 2013 Rise Set
Actual Time 6:10 AM AKDT 10:01 PM AKDT
Civil Twilight 4:51 AM AKDT 11:22 PM AKDT
Nautical Twilight 2:37 AM AKDT 1:32 AM AKDT
Astronomical Twilight Sun does not rise Sun does not rise
Moon 5:49 AM AKDT (4/12) 1:13 AM AKDT (4/12)
Length of Visible Light 18h 30m
Length of Day
15h 51m
Waxing Crescent, 6% of the Moon is Illuminated
Apr 12
Waxing Crescent
Apr 18
First Quarter
Apr 25
Full
May 2
Last Quarter
May 9
New

Hourly Weather History & Observations

Time (AKDT) Temp. Windchill Dew Point Humidity Pressure Visibility Wind Dir Wind Speed Gust Speed Precip Events Conditions
12:53 AM -16.1 °F - -20.9 °F 79% 30.43 in 10.0 mi North - - N/A   Unknown
1:53 AM -16.1 °F - -20.0 °F 82% 30.44 in 10.0 mi North - - N/A   Unknown
2:53 AM -17.0 °F - -20.9 °F 82% 30.45 in 10.0 mi North - - N/A   Unknown
3:53 AM -16.1 °F - -20.0 °F 82% 30.46 in 10.0 mi North - - N/A   Overcast
4:53 AM -16.1 °F - -20.0 °F 82% 30.46 in 10.0 mi North - - N/A   Overcast
5:53 AM -17.0 °F - -20.9 °F 82% 30.47 in 10.0 mi North - - N/A   Scattered Clouds
6:53 AM -18.9 °F - -24.0 °F 78% 30.48 in 10.0 mi North - - N/A   Scattered Clouds
7:53 AM -20.0 °F -42.2 °F -24.0 °F 82% 30.48 in 6.0 mi SW 11.5 mph - N/A   Clear
8:53 AM -18.0 °F -38.6 °F -22.0 °F 82% 30.48 in 7.0 mi SW 10.4 mph - N/A   Clear
9:53 AM -16.1 °F -35.0 °F -20.9 °F 79% 30.48 in 10.0 mi SW 9.2 mph - N/A   Clear
10:53 AM -15.0 °F -34.8 °F -18.9 °F 82% 30.48 in 9.0 mi SSW 10.4 mph - N/A   Clear
11:53 AM -13.0 °F -32.4 °F -17.0 °F 82% 30.49 in 10.0 mi SSW 10.4 mph - N/A   Clear
12:53 PM -9.0 °F -28.4 °F -14.1 °F 79% 30.49 in 10.0 mi SW 11.5 mph - N/A   Clear
1:53 PM -7.1 °F -25.9 °F -11.9 °F 79% 30.49 in 10.0 mi WSW 11.5 mph - N/A   Clear
2:53 PM -5.1 °F -21.5 °F -11.0 °F 76% 30.49 in 10.0 mi WSW 9.2 mph - N/A   Clear
3:53 PM -4.0 °F -19.0 °F -9.9 °F 76% 30.49 in 10.0 mi SW 8.1 mph - N/A   Clear
4:53 PM -2.9 °F -17.7 °F -9.0 °F 75% 30.49 in 10.0 mi SW 8.1 mph - N/A   Clear
5:53 PM -4.0 °F -16.3 °F -8.0 °F 83% 30.48 in 10.0 mi SW 5.8 mph - N/A   Clear
6:53 PM -6.0 °F -20.1 °F -9.0 °F 87% 30.49 in - SSW 6.9 mph - N/A   Unknown
7:53 PM -8.0 °F -21.0 °F -11.9 °F 83% 30.49 in 10.0 mi SSW 5.8 mph - N/A   Clear
8:53 PM -9.9 °F -21.5 °F -13.0 °F 86% 30.48 in 10.0 mi SSW 4.6 mph - N/A   Clear
9:53 PM -11.9 °F -25.7 °F -15.0 °F 86% 30.49 in 10.0 mi SW 5.8 mph - N/A   Clear
10:53 PM -16.1 °F -32.3 °F -20.0 °F 82% 30.49 in 10.0 mi SSW 6.9 mph - N/A   Clear
11:53 PM -17.0 °F -27.2 °F -20.0 °F 86% 30.48 in 10.0 mi South 3.5 mph - N/A   Clear